COSMOS 2251 DEB, 34118

Orbit data source: Space-Track

COSMOS 2251 DEB, 34118 is space debris in LEO originally from a launch on Wed, 16 Jun 1993 UTC launched from the Plesetsk Missile And Space Complex (PKMTR). The debris from Iridium 33, an American commercial communications satellite, has been tracked extensively since its accidental collision with the defunct Russian satellite Cosmos 2251 in 2009. This event, occurring at high speed in low Earth orbit (LEO), generated thousands of pieces of space debris, significantly increasing the risk of further collisions. The Iridium 33 debris cloud has impacted space traffic management and orbital debris mitigation strategies, making it a subject of ongoing study in space situational awareness.

Loading next visibility...
Identifier
34118, 1993-036KP
Orbit
LEO
Country
Flag of CISCIS
Related business
Manufacturer
Unknown
Mission
Spacecraft
Bus & Motor
Unknown
Mass
Unknown
Launch date (UTC)
1993-06-16 (33 years ago)
Launch vehicle
Unknown
Launch site
Plesetsk Missile And Space Complex (PKMTR)
Object type
Payload
Rocket body
Debris
Shape & HBR
Unknown shape, 0.1 m
Radar Cross Section
Small (<0.1 m²)

Expand to show TLE details & history
Last TLE update: 1 day ago

TLE from 1 day ago
0 COSMOS 2251 DEB
1 34118U 93036KP  25348.80521384  .00014971  00000-0  13544-2 0  9992
2 34118  73.9523 245.1236 0059896  74.9737 349.6428 14.94044359892070
Epoch: 2025-12-14T19:19Z
TLE epoch observation values (Epoch: 2025-12-14T19:19:30.475Z)
Latitude
60.26178°
Longitude
-98.41617°
Altitude
554.221 km
Speed
7.613 km/s
True Right ascension
18h 20m 41s
True Declination
60° 06' 33"
Sunlit
Object was in daylight at epoch
Visualization orbit readout
Latitude
Unknown
Longitude
Unknown
Altitude
Unknown
Speed
Unknown
Apparent Right ascension
Unknown
Apparent Declination
Unknown
Sunlit
N/A
Visualization observer readout
Local Sidereal Time
18:15:09
Azimuth
Unknown
Elevation
Unknown
Doppler factor
Unknown
Orbital elements
Apogee altitude
624.602 km
Perigee altitude
541.214 km
Semi-major axis
6,961.045 km
Eccentricity
0.00599
Inclination
73.9523°
RAAN
245.1236°
Arg. of periapsis
74.9737°
True anomaly
349.51849°
Mean anomaly
349.6428°
Eccentric anomaly
349.58074°
Mean motion
3.73707 °/min
Orbital period
96.33 mins
BSTAR
0.0013544
Loading maneuver chart data...
Computing Atmospheric mass density...

Documentation

Showing up to 5 results
|